Tracking 34747 objects as of 16-Jul-2026
HD Live streaming from Space Station
objects crossing your sky now

CZ-4 DEB

Track CZ-4 DEB now!
10-day predictions


NORAD ID: 37616
Int'l Code: 1990-081DC
Perigee: 855.0 km
Apogee: 1,001.0 km
Inclination: 98.9 °
Period: 103.4 minutes
Semi major axis: 7298 km
RCS: 0.0129 m2 (small)
Launch date: September 3, 1990
Source: People's Republic of China (PRC)
Launch site: Taiyaun Space Center, China (TSC)

Note: This is SATELLITE DEBRIS
Your satellite tracking list
Your tracking list is empty




NASA's NSSDC Master Catalog

Two Line Element Set (TLE):
1 37616U 90081DC  26197.20858519  .00000196  00000-0  17843-3 0  9996
2 37616  98.9138 171.4632 0100040 184.0539 175.9821 13.92219676720695
Source of the keplerian elements: AFSPC